(126) Velleda
ephemeris date magn radius delta ra dec elong phase
Today17 Jun 202614.82.679 AU3.224 AU09h12m+18°08'49.6°16.8°
Opposition30 Apr 202712.42.597 AU1.590 AU14h28m-16°07'178.5°0.6°
(126) Velleda - 2026-06-17
astro.vanbuitenen.nl


 
-1 year
-1 month
-1 day
Now
+1 day
+1 month
+1 year

The interactive orbit chart above shows the body's path through the solar system and its position at the given date. Green and blue lines are shown perpendicular to the ecliptic plane: Green if the path is above the ecliptic plane, blue if it is below. (Left-click and drag to rotate the view; Right-click and drag to move the view; Use scroll wheel to zoom in our out.)

The orbital elements of Velleda are:

            e (Eccentricity)                : 0.1061489
            a (Semimajor axis)              : 2.4396295
            i (Inclination)                 : 2.92241
            Ω (Longitude of ascending node) : 23.13885
            ω (Argument of perihelion)      : 328.75413
            M (Mean anomaly)                : 153.30761
            Epoch                           : 2026 Jun 09

            L (Longitude of perihelion)     : -8.07396
            B (Latitude of perihelion)      : -1.51541
            P (Orbital period in years)     : 3.81            
        

The light curve chart below shows the estimated development of the minor planet's magnitude.


The all-sky chart below shows the path of the minor planet over the same period as the light curve. The current position is marked yellow.





The following chart shows the path of the minor planet in the next few days. The field of view is optimized for (~10x50) binoculars and finderscopes.




Ephemerides:
Date       Time       RA (2000)    DEC (2000)    delta   radius  elong  phase   PA    magn
2026-06-17 00:00 UT   09 12 19.6   +18 08 16     3.224    2.679   49.6   16.8   106   14.8 
2026-06-17 12:42 UT   09 13 05.9   +18 04 28     3.229    2.679   49.3   16.7   106   14.8 
2026-06-18 00:00 UT   09 13 47.1   +18 01 05     3.234    2.680   49.0   16.6   106   14.8 
2026-06-19 00:00 UT   09 15 14.8   +17 53 50     3.245    2.680   48.4   16.5   106   14.8 
2026-06-20 00:00 UT   09 16 42.7   +17 46 32     3.255    2.680   47.8   16.3   106   14.8 
2026-06-21 00:00 UT   09 18 10.8   +17 39 11     3.265    2.681   47.2   16.2   106   14.8 
2026-06-22 00:00 UT   09 19 39.0   +17 31 47     3.275    2.681   46.7   16.0   106   14.8 
2026-06-23 00:00 UT   09 21 07.5   +17 24 20     3.285    2.682   46.1   15.8   106   14.8 
2026-06-24 00:00 UT   09 22 36.1   +17 16 50     3.295    2.682   45.5   15.7   106   14.8 
2026-06-25 00:00 UT   09 24 04.8   +17 09 17     3.304    2.682   44.9   15.5   106   14.8 
2026-06-26 00:00 UT   09 25 33.7   +17 01 40     3.314    2.683   44.3   15.4   106   14.8 
2026-06-27 00:00 UT   09 27 02.8   +16 54 01     3.323    2.683   43.8   15.2   106   14.8 
2026-06-28 00:00 UT   09 28 32.0   +16 46 18     3.333    2.683   43.2   15.0   106   14.8 
2026-06-29 00:00 UT   09 30 01.3   +16 38 33     3.342    2.684   42.6   14.9   106   14.8 
2026-06-30 00:00 UT   09 31 30.8   +16 30 44     3.351    2.684   42.0   14.7   107   14.8 
2026-07-01 00:00 UT   09 33 00.4   +16 22 53     3.360    2.684   41.5   14.5   107   14.8 
2026-07-02 00:00 UT   09 34 30.1   +16 14 59     3.369    2.685   40.9   14.4   107   14.8 
2026-07-03 00:00 UT   09 35 60.0   +16 07 01     3.378    2.685   40.3   14.2   107   14.8 
2026-07-04 00:00 UT   09 37 30.0   +15 59 01     3.387    2.685   39.8   14.0   107   14.8 
2026-07-05 00:00 UT   09 39 00.0   +15 50 58     3.396    2.686   39.2   13.8   107   14.8 
2026-07-06 00:00 UT   09 40 30.2   +15 42 52     3.404    2.686   38.6   13.7   107   14.8 
2026-07-07 00:00 UT   09 42 00.5   +15 34 43     3.413    2.686   38.1   13.5   107   14.8 
2026-07-08 00:00 UT   09 43 31.0   +15 26 31     3.421    2.687   37.5   13.3   107   14.8 
2026-07-09 00:00 UT   09 45 01.5   +15 18 16     3.429    2.687   36.9   13.1   107   14.8 


    Terminology:
            
    delta:  distance between minor planet and earth in AU
    radius: distance between minor planet and sun in AU
    magn:   magnitude (brightness) estimate    
    ra:     right ascension in hours (24h = 360deg)
    dec:    declination in degrees
    elong:  elongation in degrees (angle sun-earth-minor planet)    
    phase:  phase angle in degrees (angle sun-minor planet-earth)        
    AU:     Astronomical Unit (mean distance between earth and sun: 149597870.7 km
    

Orbital elements provided by the MPC (Minor Planet Center).
Calculations by a modified version of AAPlus, a C# implementation of the AA+ project by PJ Naughter from the algorithms presented in the book "Astronomical Algorithms" by Jean Meeus.
NGC2000 dso catalog and star labels from VizieR as provided by the Strasbourg astronomical Data Center.
Tycho2 catalog from the ESO archive.